,,PA_Meas_PMT16A,,PR_Meas_QMR101_102,,RH_Meas_QMH101,,SR_Meas_QMS101,,TA_Meas_QMH101,,GenWind,,GenWind,
time,status,PA,status,PR,status,RH,status,SR,status,TA,status,DirAvg,status,SpdAvg,
2013-04-07, 00:00:04,VALID,916.639,VALID,0,VALID,96.7183,VALID,0,VALID,19.1792,VALID,26,VALID,0,
2013-04-07, 00:01:04,VALID,916.605,VALID,0,VALID,96.7335,VALID,0,VALID,19.2212,VALID,25,VALID,0,
2013-04-07, 00:02:04,VALID,916.578,VALID,0,VALID,96.7793,VALID,0,VALID,19.1178,VALID,24,VALID,0,
2013-04-07, 00:03:04,VALID,916.579,VALID,0,VALID,96.764,VALID,0,VALID,19.1583,VALID,21,VALID,0,
2013-04-07, 00:04:04,VALID,916.554,VALID,0,VALID,96.7793,VALID,0,VALID,19.1388,VALID,15,VALID,0,
2013-04-07, 00:05:04,VALID,916.512,VALID,0,VALID,96.7716,VALID,0,VALID,19.1388,VALID,14,VALID,0,
2013-04-07, 00:06:04,VALID,916.545,VALID,0,VALID,96.8021,VALID,0,VALID,19.1807,VALID,15,VALID,0,
2013-04-07, 00:07:04,VALID,916.55,VALID,0,VALID,96.8098,VALID,0,VALID,19.1178,VALID,28,VALID,0,
2013-04-07, 00:08:04,VALID,916.504,VALID,0,VALID,96.825,VALID,0,VALID,19.1792,VALID,306,VALID,0,
2013-04-07, 00:09:04,VALID,916.489,VALID,0,VALID,96.8326,VALID,0,VALID,19.1807,VALID,15,VALID,0,
2013-04-07, 00:10:04,VALID,916.512,VALID,0.2,VALID,96.8326,VALID,0,VALID,19.1388,VALID,21,VALID,0,
2013-04-07, 00:11:04,VALID,916.506,VALID,0,VALID,96.8631,VALID,0,VALID,19.1388,VALID,40,VALID,0,
2013-04-07, 00:12:04,VALID,916.45,VALID,0,VALID,96.8707,VALID,0,VALID,19.2017,VALID,12,VALID,0,
2013-04-07, 00:13:04,VALID,916.477,VALID,0,VALID,96.8784,VALID,0,VALID,19.1807,VALID,297,VALID,0,
2013-04-07, 00:14:04,VALID,916.477,VALID,0,VALID,96.886,VALID,0,VALID,19.1164,VALID,15,VALID,0,
2013-04-07, 00:15:04,VALID,916.42,VALID,0,VALID,96.886,VALID,0,VALID,19.2002,VALID,15,VALID,0,
2013-04-07, 00:16:04,VALID,916.443,VALID,0,VALID,96.9165,VALID,0,VALID,19.1987,VALID,46,VALID,0,
2013-04-07, 00:17:04,VALID,916.388,VALID,0,VALID,96.9012,VALID,0,VALID,19.1778,VALID,322,VALID,0,
2013-04-07, 00:18:04,VALID,916.36,VALID,0,VALID,96.9089,VALID,0.107441,VALID,19.1778,VALID,15,VALID,0,
2013-04-07, 00:19:04,VALID,916.356,VALID,0,VALID,96.9089,VALID,0.107441,VALID,19.1554,VALID,22,VALID,0,
2013-04-07, 00:20:04,VALID,916.372,VALID,0,VALID,96.9546,VALID,0.107441,VALID,19.1554,VALID,19,VALID,0,
2013-04-07, 00:21:04,VALID,916.357,VALID,0,VALID,96.947,VALID,0,VALID,19.1973,VALID,7,VALID,0,
2013-04-07, 00:22:04,VALID,916.337,VALID,0,VALID,96.947,VALID,0.107441,VALID,19.1958,VALID,22,VALID,0,
2013-04-07, 00:23:04,VALID,916.304,VALID,0,VALID,96.9622,VALID,0,VALID,19.1554,VALID,19,VALID,0,
2013-04-07, 00:24:04,VALID,916.335,VALID,0,VALID,96.9622,VALID,0.107441,VALID,19.1778,VALID,8,VALID,0,
2013-04-07, 00:25:04,VALID,916.367,VALID,0,VALID,96.9622,VALID,0,VALID,19.1973,VALID,23,VALID,0,
2013-04-07, 00:26:04,VALID,916.316,VALID,0,VALID,96.9927,VALID,0.107441,VALID,19.1763,VALID,24,VALID,0,
2013-04-07, 00:27:04,VALID,916.283,VALID,0,VALID,97.0003,VALID,0.107441,VALID,19.1554,VALID,18,VALID,0,
2013-04-07, 00:28:04,VALID,916.306,VALID,0,VALID,96.9927,VALID,0,VALID,19.1568,VALID,310,VALID,0,
2013-04-07, 00:29:04,VALID,916.31,VALID,0,VALID,97.0003,VALID,0,VALID,19.1778,VALID,345,VALID,0,
2013-04-07, 00:30:04,VALID,916.271,VALID,0,VALID,96.9927,VALID,0,VALID,19.1778,VALID,18,VALID,0,
2013-04-07, 00:31:04,VALID,916.309,VALID,0,VALID,97.0156,VALID,0,VALID,19.1778,VALID,17,VALID,0,
2013-04-07, 00:32:04,VALID,916.259,VALID,0,VALID,97.0156,VALID,0,VALID,19.1568,VALID,21,VALID,0,
2013-04-07, 00:33:04,VALID,916.247,VALID,0,VALID,97.0385,VALID,0,VALID,19.1973,VALID,34,VALID,0,
2013-04-07, 00:34:04,VALID,916.219,VALID,0,VALID,97.0385,VALID,0,VALID,19.1973,VALID,356,VALID,0,
2013-04-07, 00:35:04,VALID,916.215,VALID,0,VALID,97.0461,VALID,0,VALID,19.1987,VALID,199,VALID,0,
2013-04-07, 00:36:04,VALID,916.248,VALID,0,VALID,97.0461,VALID,0,VALID,19.1792,VALID,198,VALID,0,
2013-04-07, 00:37:04,VALID,916.231,VALID,0,VALID,97.0461,VALID,0,VALID,19.1778,VALID,324,VALID,0,
2013-04-07, 00:38:04,VALID,916.196,VALID,0,VALID,97.0537,VALID,0,VALID,19.1778,VALID,323,VALID,0,
2013-04-07, 00:39:04,VALID,916.199,VALID,0,VALID,97.0613,VALID,0,VALID,19.1973,VALID,270,VALID,0,
2013-04-07, 00:40:04,VALID,916.194,VALID,0,VALID,97.0766,VALID,0,VALID,19.1973,VALID,270,VALID,0,
2013-04-07, 00:41:04,VALID,916.173,VALID,0,VALID,97.0918,VALID,0,VALID,19.2377,VALID,270,VALID,0,
2013-04-07, 00:42:04,VALID,916.155,VALID,0,VALID,97.0918,VALID,0,VALID,19.2168,VALID,270,VALID,0,
2013-04-07, 00:43:04,VALID,916.169,VALID,0,VALID,97.0918,VALID,0,VALID,19.1973,VALID,273,VALID,0,
2013-04-07, 00:44:04,VALID,916.121,VALID,0,VALID,97.0918,VALID,0,VALID,19.2168,VALID,308,VALID,0,
2013-04-07, 00:45:04,VALID,916.094,VALID,0,VALID,97.1071,VALID,0,VALID,19.2572,VALID,257,VALID,0,
2013-04-07, 00:46:04,VALID,916.065,VALID,0,VALID,97.1071,VALID,0,VALID,19.2377,VALID,327,VALID,0,
2013-04-07, 00:47:04,VALID,916.035,VALID,0,VALID,97.0918,VALID,0,VALID,19.2572,VALID,30,VALID,0,
2013-04-07, 00:48:04,VALID,916.018,VALID,0,VALID,97.1223,VALID,0,VALID,19.2767,VALID,105,VALID,0,
2013-04-07, 00:49:04,VALID,915.993,VALID,0,VALID,97.1147,VALID,0,VALID,19.2767,VALID,105,VALID,0,
2013-04-07, 00:50:04,VALID,915.942,VALID,0,VALID,97.1223,VALID,0,VALID,19.2558,VALID,105,VALID,0,
2013-04-07, 00:51:04,VALID,915.949,VALID,0,VALID,97.1299,VALID,0,VALID,19.2753,VALID,96,VALID,0,
2013-04-07, 00:52:04,VALID,915.948,VALID,0,VALID,97.1376,VALID,0,VALID,19.2753,VALID,305,VALID,0,
2013-04-07, 00:53:04,VALID,915.954,VALID,0,VALID,97.1376,VALID,0,VALID,19.2753,VALID,305,VALID,0,
2013-04-07, 00:54:04,VALID,915.908,VALID,0,VALID,97.1376,VALID,0,VALID,19.3157,VALID,31,VALID,0,
2013-04-07, 00:55:04,VALID,915.921,VALID,0,VALID,97.1528,VALID,0,VALID,19.2962,VALID,21,VALID,0,
2013-04-07, 00:56:04,VALID,915.909,VALID,0,VALID,97.1376,VALID,0,VALID,19.3157,VALID,30,VALID,0,
2013-04-07, 00:57:04,VALID,915.914,VALID,0,VALID,97.1376,VALID,0,VALID,19.3157,VALID,12,VALID,0,
2013-04-07, 00:58:04,VALID,915.888,VALID,0,VALID,97.1528,VALID,0,VALID,19.3143,VALID,344,VALID,0,
2013-04-07, 00:59:04,VALID,915.872,VALID,0,VALID,97.1604,VALID,0.107441,VALID,19.3338,VALID,302,VALID,0,
2013-04-07, 01:00:04,VALID,915.876,VALID,0,VALID,97.1528,VALID,0,VALID,19.3143,VALID,360,VALID,0,
2013-04-07, 01:01:04,VALID,915.826,VALID,0,VALID,97.1604,VALID,0,VALID,19.3143,VALID,360,VALID,0,
2013-04-07, 01:02:04,VALID,915.811,VALID,0,VALID,97.1604,VALID,0,VALID,19.3533,VALID,2,VALID,0,
2013-04-07, 01:03:04,VALID,915.779,VALID,0,VALID,97.1452,VALID,0,VALID,19.3338,VALID,15,VALID,0,
2013-04-07, 01:04:04,VALID,915.723,VALID,0,VALID,97.1528,VALID,0.107441,VALID,19.3128,VALID,13,VALID,0,
2013-04-07, 01:05:04,VALID,915.731,VALID,0,VALID,97.1604,VALID,0,VALID,19.3533,VALID,348,VALID,0,
2013-04-07, 01:06:04,VALID,915.696,VALID,0,VALID,97.1604,VALID,0,VALID,19.3338,VALID,353,VALID,0,
2013-04-07, 01:07:04,VALID,915.675,VALID,0,VALID,97.1604,VALID,0,VALID,19.3323,VALID,309,VALID,0,
2013-04-07, 01:08:04,VALID,915.651,VALID,0,VALID,97.1528,VALID,0.107441,VALID,19.3128,VALID,309,VALID,0,
2013-04-07, 01:09:04,VALID,915.645,VALID,0,VALID,97.1681,VALID,0,VALID,19.3128,VALID,309,VALID,0,
2013-04-07, 01:10:04,VALID,915.634,VALID,0,VALID,97.1604,VALID,0.107441,VALID,19.3533,VALID,309,VALID,0,
2013-04-07, 01:11:04,VALID,915.647,VALID,0,VALID,97.1452,VALID,0,VALID,19.3128,VALID,243,VALID,0,
2013-04-07, 01:12:04,VALID,915.607,VALID,0,VALID,97.1528,VALID,0,VALID,19.3338,VALID,184,VALID,0,
2013-04-07, 01:13:04,VALID,915.612,VALID,0,VALID,97.1604,VALID,0,VALID,19.3728,VALID,184,VALID,0,
2013-04-07, 01:14:04,VALID,915.586,VALID,0,VALID,97.1604,VALID,0,VALID,19.3937,VALID,184,VALID,0,
2013-04-07, 01:15:04,VALID,915.576,VALID,0,VALID,97.1604,VALID,0,VALID,19.4132,VALID,184,VALID,0,
2013-04-07, 01:16:04,VALID,915.574,VALID,0,VALID,97.1681,VALID,0,VALID,19.3923,VALID,184,VALID,0,
2013-04-07, 01:17:04,VALID,915.536,VALID,0,VALID,97.1604,VALID,0,VALID,19.4132,VALID,184,VALID,0,
2013-04-07, 01:18:04,VALID,915.55,VALID,0,VALID,97.1681,VALID,0,VALID,19.3923,VALID,146,VALID,0,
2013-04-07, 01:19:04,VALID,915.543,VALID,0,VALID,97.1681,VALID,0,VALID,19.4132,VALID,208,VALID,0,
2013-04-07, 01:20:04,VALID,915.505,VALID,0,VALID,97.1604,VALID,0,VALID,19.3728,VALID,27,VALID,0,
2013-04-07, 01:21:04,VALID,915.521,VALID,0,VALID,97.1604,VALID,0,VALID,19.3923,VALID,360,VALID,0,
2013-04-07, 01:22:04,VALID,915.52,VALID,0,VALID,97.1681,VALID,0,VALID,19.3713,VALID,15,VALID,0,
2013-04-07, 01:23:04,VALID,915.502,VALID,0,VALID,97.1681,VALID,0,VALID,19.3908,VALID,336,VALID,0,
2013-04-07, 01:24:04,VALID,915.437,VALID,0,VALID,97.1528,VALID,0,VALID,19.3923,VALID,336,VALID,0,
2013-04-07, 01:25:04,VALID,915.449,VALID,0,VALID,97.1452,VALID,0,VALID,19.3923,VALID,336,VALID,0,
2013-04-07, 01:26:04,VALID,915.412,VALID,0,VALID,97.1681,VALID,0,VALID,19.4327,VALID,21,VALID,0,
2013-04-07, 01:27:04,VALID,915.399,VALID,0,VALID,97.1604,VALID,0,VALID,19.4327,VALID,21,VALID,0,
2013-04-07, 01:28:04,VALID,915.392,VALID,0,VALID,97.1528,VALID,0,VALID,19.3908,VALID,22,VALID,0,
2013-04-07, 01:29:04,VALID,915.339,VALID,0,VALID,97.1757,VALID,0,VALID,19.3923,VALID,22,VALID,0,
2013-04-07, 01:30:04,VALID,915.344,VALID,0,VALID,97.1376,VALID,0,VALID,19.4118,VALID,22,VALID,0,
2013-04-07, 01:31:04,VALID,915.35,VALID,0,VALID,97.1528,VALID,0,VALID,19.4118,VALID,22,VALID,0,
2013-04-07, 01:32:04,VALID,915.322,VALID,0,VALID,97.1681,VALID,0,VALID,19.4118,VALID,333,VALID,0,
2013-04-07, 01:33:04,VALID,915.318,VALID,0,VALID,97.1528,VALID,0,VALID,19.4118,VALID,212,VALID,0,
2013-04-07, 01:34:04,VALID,915.265,VALID,0,VALID,97.1452,VALID,0,VALID,19.4118,VALID,35,VALID,0,
2013-04-07, 01:35:04,VALID,915.186,VALID,0,VALID,97.1604,VALID,0,VALID,19.4508,VALID,23,VALID,0,
2013-04-07, 01:36:04,VALID,915.176,VALID,0,VALID,97.1452,VALID,0,VALID,19.4313,VALID,23,VALID,0,
2013-04-07, 01:37:04,VALID,915.176,VALID,0,VALID,97.1376,VALID,0,VALID,19.4523,VALID,286,VALID,0,
2013-04-07, 01:38:04,VALID,915.164,VALID,0,VALID,97.1452,VALID,0,VALID,19.4732,VALID,277,VALID,0,
2013-04-07, 01:39:04,VALID,915.13,VALID,0,VALID,97.1528,VALID,0,VALID,19.4523,VALID,254,VALID,0,
2013-04-07, 01:40:04,VALID,915.133,VALID,0,VALID,97.1528,VALID,0,VALID,19.4913,VALID,336,VALID,0,
2013-04-07, 01:41:04,VALID,915.125,VALID,0,VALID,97.1147,VALID,0,VALID,19.4703,VALID,351,VALID,0,
2013-04-07, 01:42:04,VALID,915.096,VALID,0,VALID,97.1376,VALID,0,VALID,19.4703,VALID,351,VALID,0,
2013-04-07, 01:43:05,VALID,915.133,VALID,0,VALID,97.1071,VALID,0,VALID,19.5108,VALID,351,VALID,0,
2013-04-07, 01:44:05,VALID,915.138,VALID,0,VALID,97.1376,VALID,0.107441,VALID,19.5093,VALID,351,VALID,0,
2013-04-07, 01:45:05,VALID,915.113,VALID,0,VALID,97.1147,VALID,0,VALID,19.4673,VALID,360,VALID,0,
2013-04-07, 01:46:05,VALID,915.145,VALID,0.2,VALID,97.1223,VALID,0,VALID,19.4673,VALID,311,VALID,0,
2013-04-07, 01:47:05,VALID,915.149,VALID,0,VALID,97.1376,VALID,0,VALID,19.4883,VALID,320,VALID,0,
2013-04-07, 01:48:05,VALID,915.087,VALID,0,VALID,97.1376,VALID,0,VALID,19.4688,VALID,277,VALID,0,
2013-04-07, 01:49:05,VALID,915.063,VALID,0,VALID,97.1223,VALID,0,VALID,19.4883,VALID,296,VALID,0,
2013-04-07, 01:50:05,VALID,915.107,VALID,0,VALID,97.1223,VALID,0,VALID,19.5078,VALID,193,VALID,0,
2013-04-07, 01:51:05,VALID,915.099,VALID,0,VALID,97.1223,VALID,0,VALID,19.4883,VALID,234,VALID,0,
2013-04-07, 01:52:05,VALID,915.09,VALID,0,VALID,97.0918,VALID,0,VALID,19.4883,VALID,182,VALID,0,
2013-04-07, 01:53:05,VALID,915.033,VALID,0,VALID,97.0994,VALID,0,VALID,19.4883,VALID,233,VALID,0,
2013-04-07, 01:54:05,VALID,915.051,VALID,0,VALID,97.0994,VALID,0,VALID,19.5483,VALID,278,VALID,0,
2013-04-07, 01:55:05,VALID,915.023,VALID,0,VALID,97.0766,VALID,0,VALID,19.5273,VALID,303,VALID,0,
2013-04-07, 01:56:05,VALID,915.006,VALID,0,VALID,97.0613,VALID,0,VALID,19.5663,VALID,335,VALID,0,
2013-04-07, 01:57:05,VALID,914.991,VALID,0,VALID,97.0842,VALID,0,VALID,19.5858,VALID,327,VALID,0,
2013-04-07, 01:58:05,VALID,914.993,VALID,0,VALID,97.0537,VALID,0.107441,VALID,19.5873,VALID,225,VALID,0,
2013-04-07, 01:59:05,VALID,914.907,VALID,0,VALID,97.0613,VALID,0,VALID,19.5873,VALID,184,VALID,0,
2013-04-07, 02:00:05,VALID,914.895,VALID,0,VALID,97.0232,VALID,0,VALID,19.6278,VALID,133,VALID,0,
2013-04-07, 02:01:05,VALID,914.856,VALID,0,VALID,97.0308,VALID,0,VALID,19.5858,VALID,133,VALID,0,
2013-04-07, 02:02:05,VALID,914.892,VALID,0,VALID,97.0308,VALID,0,VALID,19.5873,VALID,131,VALID,0,
2013-04-07, 02:03:05,VALID,914.855,VALID,0,VALID,97.0461,VALID,0,VALID,19.5873,VALID,256,VALID,0,
2013-04-07, 02:04:05,VALID,914.814,VALID,0,VALID,97.0308,VALID,0,VALID,19.6083,VALID,254,VALID,0,
2013-04-07, 02:05:05,VALID,914.805,VALID,0,VALID,97.008,VALID,0,VALID,19.6068,VALID,35,VALID,0,
2013-04-07, 02:06:05,VALID,914.754,VALID,0,VALID,97.0003,VALID,0,VALID,19.5858,VALID,36,VALID,0,
2013-04-07, 02:07:05,VALID,914.743,VALID,0,VALID,96.9851,VALID,0,VALID,19.5873,VALID,36,VALID,0,
2013-04-07, 02:08:05,VALID,914.774,VALID,0,VALID,96.9775,VALID,0,VALID,19.6083,VALID,28,VALID,0,
2013-04-07, 02:09:05,VALID,914.772,VALID,0,VALID,96.9851,VALID,0,VALID,19.5858,VALID,334,VALID,0,
2013-04-07, 02:10:05,VALID,914.803,VALID,0,VALID,96.9927,VALID,0,VALID,19.6068,VALID,157,VALID,0,
2013-04-07, 02:11:05,VALID,914.752,VALID,0,VALID,96.9927,VALID,0,VALID,19.5873,VALID,30,VALID,0,
2013-04-07, 02:12:05,VALID,914.714,VALID,0,VALID,96.9927,VALID,0,VALID,19.5873,VALID,17,VALID,0,
2013-04-07, 02:13:05,VALID,914.699,VALID,0,VALID,96.9698,VALID,0,VALID,19.5888,VALID,104,VALID,0,
2013-04-07, 02:14:05,VALID,914.779,VALID,0,VALID,96.9698,VALID,0,VALID,19.6083,VALID,42,VALID,0,
2013-04-07, 02:15:05,VALID,914.768,VALID,0,VALID,96.9775,VALID,0,VALID,19.5678,VALID,70,VALID,0,
2013-04-07, 02:16:05,VALID,914.75,VALID,0,VALID,96.9546,VALID,0,VALID,19.5678,VALID,55,VALID,0,
2013-04-07, 02:17:05,VALID,914.743,VALID,0,VALID,96.9775,VALID,0,VALID,19.5888,VALID,146,VALID,0,
2013-04-07, 02:18:05,VALID,914.757,VALID,0,VALID,96.9698,VALID,0,VALID,19.5483,VALID,87,VALID,0,
2013-04-07, 02:19:05,VALID,914.707,VALID,0,VALID,96.9698,VALID,0,VALID,19.5888,VALID,44,VALID,0,
2013-04-07, 02:20:05,VALID,914.71,VALID,0,VALID,96.9775,VALID,0,VALID,19.5873,VALID,44,VALID,0,
2013-04-07, 02:21:05,VALID,914.752,VALID,0.2,VALID,97.0003,VALID,0,VALID,19.5888,VALID,155,VALID,0,
2013-04-07, 02:22:05,VALID,914.693,VALID,0,VALID,96.9851,VALID,0,VALID,19.5678,VALID,174,VALID,0,
2013-04-07, 02:23:05,VALID,914.649,VALID,0,VALID,96.9775,VALID,0,VALID,19.6098,VALID,220,VALID,0,
2013-04-07, 02:24:05,VALID,914.656,VALID,0,VALID,96.9927,VALID,0,VALID,19.5678,VALID,24,VALID,0,
2013-04-07, 02:25:05,VALID,914.662,VALID,0,VALID,96.9927,VALID,0,VALID,19.5468,VALID,24,VALID,0,
2013-04-07, 02:26:05,VALID,914.698,VALID,0,VALID,96.9927,VALID,0,VALID,19.5678,VALID,24,VALID,0,
2013-04-07, 02:27:05,VALID,914.663,VALID,0,VALID,96.9851,VALID,0,VALID,19.5693,VALID,345,VALID,0,
2013-04-07, 02:28:05,VALID,914.639,VALID,0,VALID,97.0156,VALID,0,VALID,19.5483,VALID,44,VALID,0,
2013-04-07, 02:29:05,VALID,914.656,VALID,0,VALID,96.9851,VALID,0,VALID,19.5678,VALID,47,VALID,0,
2013-04-07, 02:30:05,VALID,914.61,VALID,0,VALID,96.9927,VALID,0,VALID,19.5483,VALID,36,VALID,0,
2013-04-07, 02:31:05,VALID,914.609,VALID,0,VALID,97.008,VALID,0,VALID,19.5678,VALID,15,VALID,0,
2013-04-07, 02:32:05,VALID,914.582,VALID,0,VALID,96.9927,VALID,0,VALID,19.5678,VALID,270,VALID,0,
2013-04-07, 02:33:05,VALID,914.604,VALID,0,VALID,97.0156,VALID,0,VALID,19.5468,VALID,200,VALID,0,
2013-04-07, 02:34:05,VALID,914.566,VALID,0,VALID,97.0232,VALID,0,VALID,19.5888,VALID,358,VALID,0,
2013-04-07, 02:35:05,VALID,914.533,VALID,0,VALID,97.0156,VALID,0,VALID,19.6083,VALID,16,VALID,0,
2013-04-07, 02:36:05,VALID,914.551,VALID,0,VALID,97.0232,VALID,0,VALID,19.5873,VALID,85,VALID,0,
2013-04-07, 02:37:05,VALID,914.56,VALID,0,VALID,97.008,VALID,0,VALID,19.6068,VALID,115,VALID,0,
2013-04-07, 02:38:05,VALID,914.584,VALID,0,VALID,97.0385,VALID,0,VALID,19.6278,VALID,108,VALID,0,
2013-04-07, 02:39:05,VALID,914.565,VALID,0,VALID,97.0308,VALID,0,VALID,19.6068,VALID,155,VALID,0,
2013-04-07, 02:40:05,VALID,914.49,VALID,0,VALID,97.0308,VALID,0,VALID,19.6083,VALID,316,VALID,0,
2013-04-07, 02:41:05,VALID,914.49,VALID,0,VALID,97.0156,VALID,0,VALID,19.5873,VALID,249,VALID,0,
2013-04-07, 02:42:05,VALID,914.468,VALID,0,VALID,97.008,VALID,0,VALID,19.6083,VALID,32,VALID,0,
2013-04-07, 02:43:05,VALID,914.483,VALID,0,VALID,97.0232,VALID,0,VALID,19.5873,VALID,325,VALID,0,
2013-04-07, 02:44:05,VALID,914.49,VALID,0,VALID,97.0156,VALID,0,VALID,19.6278,VALID,324,VALID,0,
2013-04-07, 02:45:05,VALID,914.437,VALID,0,VALID,97.008,VALID,0,VALID,19.6068,VALID,6,VALID,0,
2013-04-07, 02:46:05,VALID,914.481,VALID,0,VALID,96.9851,VALID,0,VALID,19.6263,VALID,260,VALID,0,
2013-04-07, 02:47:05,VALID,914.492,VALID,0,VALID,96.9927,VALID,0,VALID,19.6668,VALID,360,VALID,0,
2013-04-07, 02:48:05,VALID,914.495,VALID,0,VALID,97.0003,VALID,0,VALID,19.6458,VALID,25,VALID,0,
2013-04-07, 02:49:05,VALID,914.483,VALID,0,VALID,96.9775,VALID,0,VALID,19.6458,VALID,116,VALID,0,
2013-04-07, 02:50:05,VALID,914.448,VALID,0,VALID,96.9546,VALID,0,VALID,19.6458,VALID,196,VALID,0,
2013-04-07, 02:51:05,VALID,914.456,VALID,0,VALID,96.9546,VALID,0,VALID,19.6458,VALID,123,VALID,0,
2013-04-07, 02:52:05,VALID,914.455,VALID,0,VALID,96.9622,VALID,0,VALID,19.6863,VALID,30,VALID,0,
2013-04-07, 02:53:05,VALID,914.445,VALID,0,VALID,96.9546,VALID,0,VALID,19.6848,VALID,55,VALID,0,
2013-04-07, 02:54:05,VALID,914.445,VALID,0,VALID,96.9546,VALID,0,VALID,19.6653,VALID,202,VALID,0,
2013-04-07, 02:55:05,VALID,914.446,VALID,0,VALID,96.947,VALID,0,VALID,19.6458,VALID,200,VALID,0,
2013-04-07, 02:56:05,VALID,914.395,VALID,0,VALID,96.9698,VALID,0,VALID,19.6668,VALID,193,VALID,0,
2013-04-07, 02:57:05,VALID,914.405,VALID,0,VALID,96.9698,VALID,0,VALID,19.6443,VALID,89,VALID,0,
2013-04-07, 02:58:05,VALID,914.452,VALID,0.2,VALID,96.9851,VALID,0,VALID,19.6248,VALID,73,VALID,0,
2013-04-07, 02:59:05,VALID,914.433,VALID,0,VALID,96.9622,VALID,0,VALID,19.6668,VALID,31,VALID,0,
2013-04-07, 03:00:05,VALID,914.446,VALID,0,VALID,96.9546,VALID,0,VALID,19.6458,VALID,337,VALID,0,
2013-04-07, 03:01:05,VALID,914.424,VALID,0,VALID,96.9622,VALID,0,VALID,19.6668,VALID,349,VALID,0,
2013-04-07, 03:02:05,VALID,914.438,VALID,0,VALID,96.9927,VALID,0,VALID,19.6473,VALID,170,VALID,0,
2013-04-07, 03:03:05,VALID,914.392,VALID,0,VALID,96.9775,VALID,0,VALID,19.6458,VALID,229,VALID,0,
2013-04-07, 03:04:05,VALID,914.395,VALID,0,VALID,96.9622,VALID,0,VALID,19.6653,VALID,41,VALID,0,
2013-04-07, 03:05:05,VALID,914.387,VALID,0,VALID,96.9775,VALID,0,VALID,19.6653,VALID,25,VALID,0,
2013-04-07, 03:06:05,VALID,914.365,VALID,0,VALID,96.9698,VALID,0,VALID,19.6653,VALID,254,VALID,0,
2013-04-07, 03:07:05,VALID,914.344,VALID,0,VALID,96.9775,VALID,0,VALID,19.6653,VALID,114,VALID,0,
2013-04-07, 03:08:05,VALID,914.333,VALID,0,VALID,96.9698,VALID,0,VALID,19.6443,VALID,86,VALID,0,
2013-04-07, 03:09:05,VALID,914.284,VALID,0,VALID,96.9775,VALID,0,VALID,19.6443,VALID,49,VALID,0,
2013-04-07, 03:10:05,VALID,914.253,VALID,0,VALID,96.9698,VALID,0,VALID,19.6653,VALID,262,VALID,0,
2013-04-07, 03:11:05,VALID,914.248,VALID,0,VALID,96.9622,VALID,0,VALID,19.7058,VALID,262,VALID,0,
2013-04-07, 03:12:05,VALID,914.195,VALID,0,VALID,96.9394,VALID,0,VALID,19.7043,VALID,6,VALID,0,
2013-04-07, 03:13:05,VALID,914.165,VALID,0,VALID,96.947,VALID,0,VALID,19.6848,VALID,360,VALID,0,
2013-04-07, 03:14:05,VALID,914.203,VALID,0,VALID,96.9241,VALID,0,VALID,19.6848,VALID,215,VALID,0,
2013-04-07, 03:15:05,VALID,914.201,VALID,0,VALID,96.9241,VALID,0,VALID,19.7043,VALID,229,VALID,0,
2013-04-07, 03:16:05,VALID,914.178,VALID,0,VALID,96.9012,VALID,0,VALID,19.7253,VALID,242,VALID,0,
2013-04-07, 03:17:05,VALID,914.153,VALID,0,VALID,96.886,VALID,0,VALID,19.6848,VALID,54,VALID,0,
2013-04-07, 03:18:05,VALID,914.145,VALID,0,VALID,96.8936,VALID,0,VALID,19.6848,VALID,25,VALID,0,
2013-04-07, 03:19:05,VALID,914.172,VALID,0,VALID,96.8936,VALID,0,VALID,19.6848,VALID,10,VALID,0,
2013-04-07, 03:20:05,VALID,914.168,VALID,0,VALID,96.9165,VALID,0,VALID,19.7058,VALID,7,VALID,0,
2013-04-07, 03:21:05,VALID,914.173,VALID,0,VALID,96.9012,VALID,0,VALID,19.6848,VALID,37,VALID,0,
2013-04-07, 03:22:05,VALID,914.184,VALID,0,VALID,96.9165,VALID,0,VALID,19.7058,VALID,153,VALID,0,
2013-04-07, 03:23:05,VALID,914.17,VALID,0,VALID,96.9012,VALID,0,VALID,19.6848,VALID,140,VALID,0,
2013-04-07, 03:24:05,VALID,914.166,VALID,0,VALID,96.9165,VALID,0,VALID,19.6848,VALID,88,VALID,0,
2013-04-07, 03:25:05,VALID,914.194,VALID,0,VALID,96.9089,VALID,0,VALID,19.6848,VALID,55,VALID,0,
2013-04-07, 03:26:05,VALID,914.165,VALID,0,VALID,96.9012,VALID,0,VALID,19.6653,VALID,43,VALID,0,
2013-04-07, 03:27:05,VALID,914.165,VALID,0,VALID,96.9165,VALID,0,VALID,19.6848,VALID,300,VALID,0,
2013-04-07, 03:28:05,VALID,914.175,VALID,0,VALID,96.9089,VALID,0,VALID,19.6638,VALID,26,VALID,0,
2013-04-07, 03:29:05,VALID,914.207,VALID,0,VALID,96.9089,VALID,0,VALID,19.6848,VALID,27,VALID,0,
2013-04-07, 03:30:05,VALID,914.212,VALID,0,VALID,96.9089,VALID,0,VALID,19.7253,VALID,34,VALID,0,
2013-04-07, 03:31:05,VALID,914.199,VALID,0,VALID,96.8936,VALID,0,VALID,19.7043,VALID,25,VALID,0,
2013-04-07, 03:32:05,VALID,914.218,VALID,0,VALID,96.9012,VALID,0,VALID,19.7043,VALID,341,VALID,0,
2013-04-07, 03:33:05,VALID,914.217,VALID,0,VALID,96.8936,VALID,0.107441,VALID,19.6833,VALID,333,VALID,0,
2013-04-07, 03:34:05,VALID,914.222,VALID,0,VALID,96.8936,VALID,0,VALID,19.6848,VALID,325,VALID,0,
2013-04-07, 03:35:05,VALID,914.259,VALID,0,VALID,96.9012,VALID,0,VALID,19.6848,VALID,45,VALID,0,
2013-04-07, 03:36:05,VALID,914.253,VALID,0,VALID,96.886,VALID,0,VALID,19.6848,VALID,138,VALID,0,
2013-04-07, 03:37:05,VALID,914.253,VALID,0,VALID,96.886,VALID,0,VALID,19.7043,VALID,43,VALID,0,
2013-04-07, 03:38:05,VALID,914.232,VALID,0,VALID,96.8784,VALID,0,VALID,19.6638,VALID,52,VALID,0,
2013-04-07, 03:39:05,VALID,914.239,VALID,0,VALID,96.9089,VALID,0,VALID,19.6848,VALID,339,VALID,0,
2013-04-07, 03:40:05,VALID,914.226,VALID,0,VALID,96.8936,VALID,0,VALID,19.7043,VALID,339,VALID,0,
2013-04-07, 03:41:05,VALID,914.216,VALID,0,VALID,96.8936,VALID,0,VALID,19.6638,VALID,32,VALID,0,
2013-04-07, 03:42:05,VALID,914.187,VALID,0,VALID,96.9012,VALID,0,VALID,19.6848,VALID,32,VALID,0,
2013-04-07, 03:43:05,VALID,914.165,VALID,0,VALID,96.8784,VALID,0.107441,VALID,19.6653,VALID,91,VALID,0,
2013-04-07, 03:44:05,VALID,914.149,VALID,0,VALID,96.8784,VALID,0,VALID,19.6653,VALID,155,VALID,0,
2013-04-07, 03:45:05,VALID,914.152,VALID,0,VALID,96.886,VALID,0,VALID,19.6653,VALID,81,VALID,0,
2013-04-07, 03:46:05,VALID,914.146,VALID,0,VALID,96.8936,VALID,0,VALID,19.6653,VALID,72,VALID,0,
2013-04-07, 03:47:05,VALID,914.128,VALID,0,VALID,96.9012,VALID,0,VALID,19.6848,VALID,300,VALID,0,
2013-04-07, 03:48:05,VALID,914.139,VALID,0,VALID,96.8936,VALID,0,VALID,19.6848,VALID,320,VALID,0,
2013-04-07, 03:49:05,VALID,914.16,VALID,0,VALID,96.8936,VALID,0,VALID,19.6848,VALID,344,VALID,0,
2013-04-07, 03:50:05,VALID,914.133,VALID,0,VALID,96.9012,VALID,0,VALID,19.6848,VALID,65,VALID,0,
2013-04-07, 03:51:05,VALID,914.097,VALID,0,VALID,96.8631,VALID,0,VALID,19.6638,VALID,69,VALID,0,
2013-04-07, 03:52:05,VALID,914.089,VALID,0,VALID,96.8707,VALID,0.107441,VALID,19.6833,VALID,31,VALID,0,
2013-04-07, 03:53:05,VALID,914.096,VALID,0,VALID,96.8707,VALID,0,VALID,19.7043,VALID,110,VALID,0,
2013-04-07, 03:54:05,VALID,914.103,VALID,0,VALID,96.8631,VALID,0,VALID,19.7043,VALID,183,VALID,0,
2013-04-07, 03:55:05,VALID,914.08,VALID,0,VALID,96.8326,VALID,0,VALID,19.7043,VALID,25,VALID,0,
2013-04-07, 03:56:05,VALID,914.094,VALID,0,VALID,96.8403,VALID,0,VALID,19.7238,VALID,19,VALID,0,
2013-04-07, 03:57:05,VALID,914.084,VALID,0,VALID,96.8555,VALID,0,VALID,19.7043,VALID,18,VALID,0,
2013-04-07, 03:58:05,VALID,914.065,VALID,0,VALID,96.8631,VALID,0,VALID,19.7043,VALID,295,VALID,0,
2013-04-07, 03:59:05,VALID,914.063,VALID,0,VALID,96.8479,VALID,0,VALID,19.7253,VALID,297,VALID,0,